Flag for Austria Weather past 2 weeks in St. Johann im Pongau, Salzburg, Austria

Now
66 °F

Clear.


Feels Like: 66 °F
Forecast: 66 / 91 °F
Wind: 10 mph from South

Location: Salzburg-Flughafen

Current Time: Aug 30, 2015 at 6:26:50 AM

Latest Report: Aug 30, 2015 at 5:50 AM


Visibility: 10 mi

Pressure: 30.12 "Hg (28.06 "Hg at 606m altitude)

Humidity: 68%

Dew point: 55 °F

Location of St. Johann im PongauLocation

Historic Weather in St. Johann im Pongau — Graph

°F

St. Johann im Pongau temperature yesterday

Maximum temperature yesterday: 90 °F (at 3:50 PM)
Minimum temperature yesterday: 57 °F (at 6:50 AM)
Average temperature yesterday: 75 °F

Past Weeks' High & Low Weather Summary

 TemperatureHumidityPressure
High90 °F (Aug 29, 3:50 PM)100% (Aug 16, 6:20 AM)30.30 "Hg (Aug 16, 6:20 AM)
Low50 °F (Aug 23, 3:50 AM)33% (Aug 28, 6:20 PM)29.71 "Hg (Aug 24, 2:50 PM)
Average66 °F72%30.03 "Hg
* Reported Aug 15 4:20 AM — Aug 30 4:50 AM, St. Johann im Pongau, Weather by CustomWeather, © 2015

Note: Actual official high and low records may vary slightly from our data, if they occured in-between our weather recording intervals... More about our weather records

Advertising

St. Johann im Pongau weather history for previous 24 hours

 ConditionsComfort  
Time TempWeatherWind HumidityBarometerVisibility
4:50 AM
Sun, Aug 30
64 °FMild.7 mph78%30.12 "HgN/A
4:20 AM63 °FMild.5 mph83%30.12 "HgN/A
3:50 AM63 °FMild.5 mph88%30.12 "HgN/A
3:20 AM64 °FMild.6 mph88%30.12 "HgN/A
2:50 AM64 °FMild.3 mph88%30.12 "HgN/A
2:20 AM64 °FMild.3 mph88%30.12 "HgN/A
1:50 AM63 °FMild.3 mph88%30.12 "HgN/A
1:20 AM66 °FMild.2 mph83%30.12 "HgN/A
12:50 AM66 °FMild.3 mph88%30.12 "HgN/A
12:20 AM68 °FMild.5 mph83%30.12 "HgN/A
11:50 PM
Sat, Aug 29
70 °FMild.5 mph78%30.12 "HgN/A
11:20 PM72 °FMild.5 mph73%30.12 "HgN/A
10:50 PM72 °FClear.2 mph73%30.12 "Hg10 mi
10:20 PM72 °FClear.5 mph73%30.12 "Hg10 mi
9:50 PM73 °FClear.5 mph69%30.15 "Hg10 mi
9:20 PM73 °FClear.5 mph74%30.15 "Hg10 mi
8:50 PM75 °FSunny.5 mph69%30.12 "Hg10 mi
8:20 PM77 °FSunny.2 mph65%30.12 "Hg10 mi
7:50 PM81 °FSunny.5 mph58%30.12 "Hg10 mi
7:20 PM86 °FSunny.5 mph43%30.12 "Hg10 mi
6:50 PM88 °FPassing clouds.7 mph40%30.12 "HgN/A
6:20 PM88 °FSunny.8 mph38%30.15 "Hg10 mi
5:50 PM90 °FPassing clouds.8 mph38%30.15 "HgN/A
5:20 PM90 °FPassing clouds.8 mph36%30.15 "HgN/A
4:50 PM90 °FPassing clouds.7 mph38%30.15 "HgN/A
4:20 PM90 °FPassing clouds.7 mph38%30.15 "HgN/A
3:50 PM90 °FSunny.7 mph38%30.18 "Hg10 mi
3:20 PM88 °FPassing clouds.6 mph40%30.18 "HgN/A
2:50 PM88 °FSunny.5 mph43%30.18 "Hg10 mi
2:20 PM86 °FSunny.5 mph49%30.18 "Hg10 mi
1:50 PM86 °FPassing clouds.6 mph49%30.21 "HgN/A
1:20 PM84 °FPassing clouds.6 mph48%30.21 "HgN/A
12:50 PM82 °FPassing clouds.6 mph51%30.24 "HgN/A
11:50 AM81 °FSunny.3 mph51%30.24 "Hg10 mi
11:20 AM79 °FSunny.2 mph54%30.24 "Hg10 mi
10:50 AM77 °FSunny.2 mph54%30.24 "Hg10 mi
9:50 AM73 °FPassing clouds.3 mph61%30.24 "HgN/A
9:20 AM72 °FPassing clouds.3 mph65%30.24 "HgN/A
8:50 AM70 °FPassing clouds.5 mph69%30.24 "HgN/A
7:50 AM64 °FSunny.3 mph83%30.24 "Hg10 mi
7:20 AM61 °FClear.3 mph88%30.24 "Hg10 mi
6:50 AM57 °FClear.6 mph94%30.24 "Hg10 mi
6:20 AM59 °FClear.3 mph94%30.24 "Hg10 mi
Weather by CustomWeather, © 2015

See weather overviewHow to use our weather pages